Theta_e
307 301 297 300 300 300 298 296 294 297 302 295 295 296 298 302 299 300 298 297 299 309 318 321 324 325 325 322 322 322 322 323 324 324 324 324 323 323 324 325 326 326 326 325
301 297 302 304 302 300 299 297 296 297 299 296 295 295 297 299 302 300 301 298 299 300 306 315 319 322 324 322 323 322 322 323 323 325 325 325 324 323 325 326 325 325 325 326
297 300 305 301 300 297 297 296 297 297 294 296 292 292 292 297 300 301 302 304 302 301 301 307 314 318 322 322 322 323 322 323 323 324 323 319 320 318 320 321 323 324 324 325
298 302 302 301 298 299 294 302 301 299 293 290 294 285 289 293 296 299 302 303 304 303 302 304 312 315 319 321 323 324 323 322 322 323 323 322 322 320 322 324 324 324 324 324
296 297 299 298 299 302 298 303 300 298 295 292 291 287 289 291 292 294 299 302 302 303 303 302 308 315 318 321 321 323 324 323 322 322 323 322 321 322 320 321 321 322 323 324
298 301 301 301 303 304 303 298 297 295 292 287 291 290 287 290 292 294 294 299 302 299 300 300 301 311 316 317 319 321 322 323 323 322 322 321 321 321 319 319 321 322 323 324
294 295 298 301 299 303 301 296 285 284 283 284 286 288 293 293 293 293 294 295 298 298 297 297 297 299 309 313 316 318 320 321 323 323 323 322 322 322 321 321 322 322 323 323
288 285 296 301 299 296 297 297 285 282 281 280 282 283 287 296 301 295 295 295 294 295 297 298 299 297 301 309 315 318 319 321 322 324 325 324 324 323 323 323 324 324 324 325
288 288 297 300 301 300 296 293 292 281 272 277 281 284 290 292 292 293 294 292 292 292 294 294 293 297 296 302 310 316 318 320 320 323 325 325 325 325 324 324 324 325 325 325
293 285 294 293 298 299 297 299 286 283 274 273 279 279 284 288 291 292 292 292 293 292 292 293 294 293 295 296 302 309 312 315 314 317 320 323 324 326 326 325 324 324 325 323
295 291 288 293 294 294 292 292 289 286 282 277 274 280 288 290 293 293 292 292 292 292 292 292 294 294 295 296 296 297 301 304 306 308 310 311 315 317 320 324 324 323 323 324
296 291 287 291 287 293 294 294 289 287 280 280 280 280 288 291 293 294 291 291 292 293 292 292 293 295 295 296 297 297 298 297 298 300 300 302 306 310 313 316 317 318 322 320
293 288 284 283 288 290 292 290 294 287 284 281 277 281 288 288 289 291 290 290 292 293 293 294 294 295 295 296 297 298 299 300 300 300 300 300 300 302 304 303 305 309 312 314
295 288 288 284 287 292 289 291 293 290 282 283 282 282 285 285 287 288 290 291 292 293 293 293 294 295 295 296 297 299 299 300 299 299 299 298 298 299 299 299 300 304 306 307
292 285 284 285 289 291 291 290 288 290 290 285 285 285 286 287 288 290 291 291 291 292 292 293 294 294 295 296 297 299 299 300 299 299 297 297 297 297 296 295 294 296 298 299
293 284 284 280 288 290 287 291 291 291 291 288 287 286 290 290 287 288 290 290 291 291 292 293 293 294 295 296 297 298 299 299 298 297 296 295 295 294 294 295 293 291 291 293
287 284 285 283 285 286 282 288 290 291 293 292 287 292 292 289 289 290 291 290 292 292 292 292 292 294 295 296 297 297 297 297 296 295 293 292 291 291 291 291 292 291 291 292
284 284 284 278 285 278 286 293 294 292 293 295 294 292 293 294 295 294 292 292 292 292 292 292 292 292 293 294 295 296 295 294 293 291 290 289 290 290 290 290 290 289 289 289
288 285 281 279 281 280 281 285 290 290 290 296 295 294 294 291 291 291 293 293 294 293 292 292 292 292 293 294 295 293 291 290 289 289 288 288 291 288 289 287 288 288 287 286
290 288 283 278 279 276 282 286 294 294 285 294 297 296 293 291 289 294 294 292 291 291 292 291 292 291 292 290 290 289 289 288 288 288 288 288 290 289 288 288 286 285 285 285
283 284 282 280 271 277 285 289 296 284 287 296 295 297 296 292 297 297 292 289 289 289 289 289 289 288 287 287 288 288 287 288 287 285 285 284 286 287 287 286 285 286 285 285
283 282 282 272 269 277 286 292 288 292 291 289 295 297 296 297 294 290 289 287 287 286 286 285 284 284 283 285 287 286 286 285 282 282 281 279 281 285 285 286 285 285 286 286
282 287 283 282 283 287 291 291 296 290 291 288 292 296 298 297 291 287 286 286 285 284 284 282 281 280 279 280 283 283 282 281 280 279 278 275 277 283 285 286 285 285 285 285
287 290 284 285 287 286 287 289 292 289 289 288 288 289 293 290 288 285 286 285 283 281 281 279 280 281 279 278 280 280 279 279 279 278 277 275 277 276 280 282 284 285 284 284
287 288 284 282 284 285 285 288 289 288 287 287 286 286 289 288 287 287 283 282 282 281 279 279 281 280 278 279 278 274 277 279 279 277 277 276 276 276 276 276 278 280 280 283
288 286 286 287 287 289 289 291 290 289 287 286 287 286 284 287 286 285 282 282 281 279 278 278 278 277 276 276 274 270 272 278 279 277 276 275 275 274 275 275 274 283 284 286
Wind_Speed
12 11 20 28 21 6 11 10 8 6 7 8 12 13 13 10 5 9 8 9 12 15 19 15 16 16 14 11 13 15 13 14 10 7 7 6 7 6 5 7 10 8 8 8
7 21 26 16 12 10 15 14 11 3 6 8 7 16 9 8 13 8 10 10 14 8 11 12 13 14 17 18 18 16 17 15 13 10 8 6 6 5 6 6 7 9 10 9
16 28 17 21 15 17 12 19 14 10 5 3 1 10 6 9 14 10 10 13 12 15 12 12 13 16 16 16 18 18 17 16 14 13 5 3 3 2 3 5 6 7 7 8
19 14 21 23 24 17 22 15 14 10 8 4 3 7 5 8 16 12 19 14 17 15 9 9 15 15 15 17 16 16 17 16 15 14 11 14 11 10 9 8 6 7 9 10
19 22 26 23 34 29 15 11 6 7 6 6 6 4 7 4 8 10 16 18 14 13 12 12 11 14 14 15 15 16 14 15 15 15 15 11 13 9 4 5 7 9 8 12
20 11 16 20 17 22 8 10 6 4 3 6 11 12 6 6 9 7 7 12 15 10 12 9 9 9 10 8 8 10 13 14 14 15 16 15 16 13 7 7 9 8 8 9
12 19 10 12 17 14 14 15 3 3 4 8 6 9 14 8 9 8 10 10 10 9 9 9 9 8 8 9 10 9 12 13 15 16 16 18 17 14 14 13 10 9 8 8
17 13 23 17 21 15 27 21 9 14 9 5 6 12 9 17 19 8 6 5 5 7 7 9 10 9 10 11 11 13 13 15 14 16 18 15 15 11 11 12 10 10 10 10
10 7 13 23 11 23 20 21 7 9 2 4 6 7 11 9 10 10 10 7 7 6 6 7 6 5 8 8 9 12 12 13 10 15 13 13 13 13 13 13 9 9 9 7
5 5 19 5 9 12 18 17 8 2 7 6 5 7 10 11 13 10 10 10 8 6 6 5 5 3 1 4 5 7 7 8 6 8 8 10 11 12 12 9 12 11 10 8
9 4 10 12 15 20 6 15 5 7 6 7 3 10 10 14 18 17 10 10 10 9 6 5 4 3 3 4 4 5 5 5 5 4 4 4 5 5 5 8 8 10 8 10
17 6 17 28 3 6 6 17 6 11 7 3 2 9 0 10 11 12 9 9 7 6 7 5 4 3 2 1 1 3 3 4 5 5 5 6 5 4 5 6 5 6 10 8
9 6 13 5 4 4 12 7 17 4 5 7 6 8 5 1 7 9 12 8 7 7 6 4 3 3 3 3 3 3 3 4 3 3 3 2 2 1 1 2 3 3 2 2
6 7 13 21 28 31 29 28 28 15 6 8 9 5 4 3 8 8 8 9 9 8 8 6 5 6 5 5 5 5 4 3 4 4 4 4 3 4 4 3 3 4 3 3
5 6 5 3 8 19 17 21 11 21 19 13 7 7 7 8 9 13 12 8 8 8 8 8 7 7 6 6 6 5 4 5 5 5 5 4 4 4 4 5 5 4 5 4
5 4 2 5 10 19 15 22 22 21 17 5 6 7 6 6 1 4 9 9 9 9 9 9 7 7 7 8 7 6 6 6 5 5 5 4 4 4 4 4 3 3 2 2
5 4 10 8 4 12 6 27 29 26 23 28 18 16 8 6 9 12 13 11 10 9 10 10 10 9 8 8 7 8 7 6 6 5 5 5 5 5 4 4 3 3 2 3
4 4 4 5 12 14 8 21 29 32 31 26 17 13 12 12 18 14 8 13 12 10 9 8 7 6 5 3 4 4 6 6 6 6 6 5 5 5 4 4 3 3 2 2
13 5 2 7 13 2 5 11 31 29 30 29 29 16 13 4 6 7 11 9 15 11 7 6 5 4 4 3 5 7 7 7 6 6 6 5 5 4 3 3 3 2 2 2
14 13 4 4 8 16 4 9 14 7 18 16 28 25 18 11 10 18 13 9 7 8 7 8 6 4 5 2 5 7 7 7 7 7 7 6 6 6 5 5 4 2 2 3
4 4 8 7 3 8 6 11 23 15 26 25 23 26 22 18 24 11 10 7 7 7 8 7 5 6 4 1 6 6 6 6 5 5 6 5 4 5 5 5 2 4 4 4
8 7 5 3 2 14 11 21 28 21 4 8 21 23 24 29 12 9 10 11 11 11 8 7 7 5 3 1 5 6 6 4 4 6 6 5 3 4 4 5 3 4 4 4
6 10 9 12 9 4 22 9 14 2 8 6 11 21 30 27 13 11 10 12 9 9 8 5 7 6 3 2 5 8 5 6 6 6 7 5 5 4 4 4 4 3 3 3
9 8 4 4 8 6 9 7 9 2 2 2 3 6 11 10 13 9 12 11 8 7 8 5 8 8 5 4 6 5 5 5 8 9 6 5 6 5 4 3 3 4 3 2
6 9 7 7 2 4 3 8 6 2 3 3 4 5 10 16 12 14 9 10 9 9 7 6 8 8 6 5 5 3 6 7 8 7 6 6 4 5 5 3 3 3 1 2
9 8 11 9 7 7 7 17 11 10 6 7 8 6 4 8 14 12 12 10 11 12 8 9 8 9 6 6 5 3 3 7 8 7 5 4 5 4 4 4 4 9 7 8
Wind_Direction
179 194 197 201 194 185 164 178 181 207 199 175 223 242 232 255 247 245 233 220 219 215 221 205 207 201 195 186 191 198 192 193 178 182 185 192 202 204 207 204 205 197 204 200
174 211 206 193 199 179 183 174 212 245 212 179 229 246 237 243 256 219 226 229 223 224 224 210 202 199 199 195 193 194 198 193 191 189 196 197 188 208 212 216 213 204 205 205
208 208 191 191 192 197 200 188 186 199 161 183 118 273 224 236 246 237 234 228 222 215 217 211 201 200 203 199 197 196 194 192 194 195 151 84 107 108 172 208 216 218 212 210
228 215 190 186 197 190 215 203 197 185 159 199 177 277 256 226 240 232 233 225 226 219 205 210 205 202 198 209 201 196 192 191 191 182 183 193 202 212 216 217 215 207 201 206
196 178 183 191 193 186 213 143 157 180 179 132 176 264 268 212 258 236 234 232 228 219 207 205 204 205 202 204 197 198 191 192 188 188 193 195 210 217 195 200 197 202 199 209
201 204 175 204 192 187 146 110 69 91 66 252 172 199 254 209 210 242 232 234 230 210 218 214 205 197 203 193 196 190 185 193 186 188 196 197 207 209 197 202 207 205 209 212
179 182 167 155 169 183 171 162 185 142 188 231 169 191 235 238 244 227 247 240 233 204 206 222 201 206 205 191 187 186 189 194 190 192 197 203 209 204 211 212 211 205 207 213
177 186 176 176 189 178 187 185 170 193 190 201 123 224 246 217 244 218 242 210 176 172 206 217 227 205 204 198 194 192 193 202 193 196 205 206 208 209 216 216 213 219 218 220
179 212 189 179 172 165 192 208 174 98 37 84 213 279 306 232 247 218 217 191 203 199 204 220 236 211 204 208 201 195 197 210 195 204 208 207 207 210 216 219 212 219 221 222
256 140 193 172 134 187 185 174 175 15 144 216 248 280 232 204 200 205 204 202 212 208 169 201 215 206 149 187 194 186 194 206 200 200 205 211 211 212 216 211 215 213 215 202
257 204 169 155 198 173 152 186 200 124 164 165 173 250 208 203 195 195 192 190 187 186 182 189 172 157 130 103 123 167 183 192 193 193 191 207 218 215 218 224 217 212 207 208
215 259 171 188 30 169 180 180 185 195 213 215 205 272 227 250 167 155 181 182 179 173 181 186 188 166 150 172 156 168 166 176 192 197 195 213 219 217 222 225 220 206 216 217
181 232 156 147 359 23 183 183 191 109 92 193 142 263 348 237 165 160 158 180 166 158 162 165 153 184 197 200 199 194 187 187 164 141 139 125 116 101 63 44 28 26 3 322
198 213 200 186 188 180 186 188 193 185 174 181 219 296 322 273 165 154 159 162 169 174 181 187 188 202 208 207 198 195 199 181 148 136 141 152 152 142 137 122 94 83 88 129
163 224 214 327 136 189 190 187 181 201 212 196 189 198 255 225 197 186 175 162 164 186 199 199 194 198 199 202 212 201 187 176 166 160 160 172 144 116 104 80 62 49 58 54
151 244 119 346 158 180 188 195 200 210 207 243 183 226 225 209 80 154 185 173 180 191 200 200 197 190 197 201 204 194 193 187 171 169 172 150 132 118 105 83 71 72 78 77
177 198 171 207 186 131 178 197 195 205 206 212 205 210 153 174 199 205 204 190 190 192 195 185 185 189 197 204 189 197 186 159 170 165 159 154 142 130 119 111 101 70 39 36
297 277 203 164 135 196 217 191 205 202 209 212 226 178 179 194 204 211 216 194 195 196 195 185 185 185 197 178 184 156 159 166 165 166 165 159 152 130 128 134 140 125 104 105
178 236 182 166 188 293 268 202 190 190 217 209 219 203 212 182 108 261 210 207 195 195 177 180 156 140 133 165 177 159 155 152 152 172 165 157 140 124 141 119 122 69 87 66
211 201 188 146 166 203 234 154 196 178 265 206 213 204 193 152 200 232 198 179 167 138 145 149 141 110 129 105 149 150 161 159 176 167 163 164 156 158 156 150 126 97 90 80
175 163 184 188 196 281 251 150 136 147 238 217 202 206 189 193 213 207 144 136 142 138 136 125 123 133 127 120 149 148 147 176 169 146 139 134 125 138 134 130 115 129 115 112
182 161 174 80 75 258 177 156 170 199 100 163 193 195 198 208 184 160 145 139 142 139 140 143 123 108 47 52 141 139 136 122 114 115 104 97 100 93 97 109 88 96 101 98
249 202 186 194 201 251 189 167 215 46 174 209 179 205 199 193 170 154 145 141 148 141 123 102 118 109 48 30 134 131 160 137 122 106 111 113 103 101 94 114 114 96 95 92
205 233 227 121 221 206 217 248 246 313 278 197 192 178 183 163 141 143 145 139 138 129 128 128 124 116 98 52 72 104 126 119 110 110 111 102 106 98 87 85 93 108 115 114
190 155 206 271 279 1 306 224 249 190 300 114 108 161 150 138 158 151 138 134 134 126 123 131 135 124 114 97 90 88 122 116 112 119 118 112 109 104 93 65 104 111 104 137
184 191 202 246 171 162 218 213 187 162 190 213 145 107 86 143 148 134 133 134 134 133 133 125 129 127 126 120 97 63 111 128 130 116 105 114 115 94 98 106 65 46 67 64